KUIPER-00152

Last updated on Mon Oct 20 2025 00:02:06 GMT+0000 (Coordinated Universal Time)

1 65772U 25217L 25292.30424847 .00050798 00000+0 13710-2 0 9998 2 65772 51.8742 327.4124 0002319 82.7403 277.3848 15.37274231 3678
UTC large
Height (km)
Speed (km/s)
/
Latitude / Longitude
Inclination (degrees)
Orbital Period (minutes)
Azimuth
Elevation
Range (km)
Doppler Factor

Next 0 passes for location: London (51.5072 / 0.1276)

Sorry there are no passes over London.